Tracking 30744 objects as of 24-Jun-2025
HD Live streaming from Space Station
objects crossing your sky now

ARIANE 5 R/B

Track ARIANE 5 R/B now!


NORAD ID: 33276
Int'l Code: 2008-038C
Perigee: 235.8 km
Apogee: 32,236.2 km
Inclination: 2.2 °
Period: 563.8 minutes
Semi major axis: 22607 km
RCS: 23.7749 m2 (large)
Launch date: August 14, 2008
Source: France (FR)
Launch site: FRENCH GUIANA (FRGUI)

Note: This is a ROCKET BODY
Your satellite tracking list
Your tracking list is empty




NASA's NSSDC Master Catalog

Two Line Element Set (TLE):
1 33276U 08038C   25174.82954922  .00010856  00000-0  16527-2 0  9993
2 33276   2.1962 280.6715 7077546 178.4058 187.3868  2.55410114147546
Source of the keplerian elements: AFSPC